Location: Unspecified
(0.0000°N, 0.0000°E)
Time: 13:43:01
(UTC+00:00)

FALCON 9 R/B - Pass Details

Date: 06 November 2020
Orbit: 485 x 62261 km, 25.4° (Epoch: 27 November)

Event Time Altitude Azimuth Distance (km) Brightness Sun altitude
Exits shadow 00:22:24 48° 37° (NE) 9,829 ? -71.3°
Maximum altitude 06:17:25 65° 355° (N) 56,834 ? 8.1°
Drops below altitude 10° 12:24:19 10° 287° (WNW) 64,350 ? 70.9°
Sets 13:17:09 0° 286° (WNW) 63,020 ? 61.8°
